"Sample Date","Sample Time","Sample Value","Units","Flow Rate","Sample Interval","Number Channels","Micron Size 0","Counts/Channel 0","Micron Size 1","Counts/Channel 1","Micron Size 2","Counts/Channel 2","Micron Size 3","Counts/Channel 3","Micron Size 4","Counts/Channel 4","Micron Size 5","Counts/Channel 5","Micron Size 6","Counts/Channel 6","Micron Size 7","Counts/Channel 7","Micron Size 8","Counts/Channel 8","Micron Size 9","Counts/Channel 9","Micron Size 10","Counts/Channel 10","Micron Size 11","Counts/Channel 11","Micron Size 12","Counts/Channel 12","Micron Size 13","Counts/Channel 13","Micron Size 14","Counts/Channel 14","Micron Size 15","Counts/Channel 15","Micron Size 16","Counts/Channel 16","Micron Size 17","Counts/Channel 17","Micron Size 18","Counts/Channel 18","Micron Size 19","Counts/Channel 19","Micron Size 20","Counts/Channel 20","Micron Size 21","Counts/Channel 21","Micron Size 22","Counts/Channel 22","Micron Size 23","Counts/Channel 23","Micron Size 24","Counts/Channel 24","Micron Size 25","Counts/Channel 25","Micron Size 26","Counts/Channel 26","Micron Size 27","Counts/Channel 27","Micron Size 28","Counts/Channel 28","Micron Size 29","Counts/Channel 29","Micron Size 30","Counts/Channel 30","Micron Size 31","Counts/Channel 31"
"03/07/08","07:00:02",54607.000,"cc",28287.820,6.00,6,0.100,33812.000,0.200,9997.000,0.300,6313.000,0.500,3736.000,1.000,749.000,5.000,0
"03/07/08","07:00:08",56336.000,"cc",28308.275,6.00,6,0.100,36375.000,0.200,9656.000,0.300,5664.000,0.500,3767.000,1.000,874.000,5.000,0
"03/07/08","07:00:14",59368.000,"cc",28315.635,6.00,6,0.100,42751.000,0.200,8826.000,0.300,4360.000,0.500,2818.000,1.000,613.000,5.000,0
"03/07/08","07:00:20",55739.000,"cc",28330.244,6.00,6,0.100,42753.000,0.200,7520.000,0.300,3045.000,0.500,1988.000,1.000,433.000,5.000,0
"03/07/08","07:00:26",60117.000,"cc",28369.150,6.00,6,0.100,46757.000,0.200,8186.000,0.300,3018.000,0.500,1802.000,1.000,354.000,5.000,0
"03/07/08","07:00:32",54730.000,"cc",28308.061,6.00,6,0.100,41640.000,0.200,7656.000,0.300,2981.000,0.500,1939.000,1.000,514.000,5.000,0
"03/07/08","07:00:38",49289.000,"cc",28317.020,6.00,6,0.100,38361.000,0.200,6401.000,0.300,2483.000,0.500,1635.000,1.000,409.000,5.000,0
"03/07/08","07:00:44",96157.000,"cc",28235.043,6.00,6,0.100,76793.000,0.200,12735.000,0.300,3746.000,0.500,2361.000,1.000,522.000,5.000,0
"03/07/08","07:00:50",283427.000,"cc",28336.668,6.00,6,0.100,234378.000,0.200,41212.000,0.300,5010.000,0.500,2339.000,1.000,488.000,5.000,0
"03/07/08","07:00:56",367266.000,"cc",28288.100,6.00,6,0.100,285030.000,0.200,72699.000,0.300,6500.000,0.500,2515.000,1.000,522.000,5.000,0
"03/07/08","07:01:02",240663.000,"cc",28318.982,6.00,6,0.100,182618.000,0.200,48127.000,0.300,6521.000,0.500,2846.000,1.000,551.000,5.000,0
"03/07/08","07:01:08",201532.000,"cc",28344.940,6.00,6,0.100,164734.000,0.200,27475.000,0.300,5807.000,0.500,2975.000,1.000,541.000,5.000,0
"03/07/08","07:01:14",226449.000,"cc",28283.219,6.00,6,0.100,186602.000,0.200,30782.000,0.300,5559.000,0.500,2925.000,1.000,581.000,5.000,0
"03/07/08","07:01:20",186931.000,"cc",28314.881,6.00,6,0.100,152177.000,0.200,25137.000,0.300,5595.000,0.500,3287.000,1.000,735.000,5.000,0
"03/07/08","07:01:26",182375.000,"cc",28334.277,6.00,6,0.100,148763.000,0.200,24470.000,0.300,5538.000,0.500,2984.000,1.000,620.000,5.000,0
"03/07/08","07:01:32",156842.000,"cc",28317.857,6.00,6,0.100,124428.000,0.200,21957.000,0.300,6206.000,0.500,3557.000,1.000,694.000,5.000,0
"03/07/08","07:01:38",147399.000,"cc",28286.361,6.00,6,0.100,118574.000,0.200,19973.000,0.300,5361.000,0.500,2913.000,1.000,578.000,5.000,0
"03/07/08","07:01:44",113695.000,"cc",28388.398,6.00,6,0.100,92062.000,0.200,14461.000,0.300,4047.000,0.500,2501.000,1.000,624.000,5.000,0
"03/07/08","07:01:50",89721.000,"cc",28295.219,6.00,6,0.100,68068.000,0.200,13002.000,0.300,4907.000,0.500,3035.000,1.000,709.000,5.000,0
"03/07/08","07:01:56",93280.000,"cc",28329.588,6.00,6,0.100,69387.000,0.200,14014.000,0.300,5650.000,0.500,3568.000,1.000,661.000,5.000,0
"03/07/08","07:02:02",93917.000,"cc",28372.301,6.00,6,0.100,69592.000,0.200,14021.000,0.300,5880.000,0.500,3631.000,1.000,793.000,5.000,0
"03/07/08","07:02:08",92212.000,"cc",28270.287,6.00,6,0.100,67804.000,0.200,14409.000,0.300,6011.000,0.500,3399.000,1.000,589.000,5.000,0
"03/07/08","07:02:14",87826.000,"cc",28284.773,6.00,6,0.100,64802.000,0.200,13168.000,0.300,5642.000,0.500,3450.000,1.000,764.000,5.000,0
"03/07/08","07:02:20",98618.000,"cc",28251.869,6.00,6,0.100,76136.000,0.200,13758.000,0.300,4831.000,0.500,3250.000,1.000,643.000,5.000,0
"03/07/08","07:02:26",94040.000,"cc",28320.191,6.00,6,0.100,72341.000,0.200,13283.000,0.300,4927.000,0.500,2877.000,1.000,612.000,5.000,0
"03/07/08","07:02:32",68519.000,"cc",28337.926,6.00,6,0.100,50489.000,0.200,10217.000,0.300,4659.000,0.500,2646.000,1.000,508.000,5.000,0
"03/07/08","07:02:38",61701.000,"cc",28323.309,6.00,6,0.100,45177.000,0.200,9420.000,0.300,4278.000,0.500,2385.000,1.000,441.000,5.000,0
"03/07/08","07:02:44",62639.000,"cc",28373.754,6.00,6,0.100,45785.000,0.200,9654.000,0.300,4202.000,0.500,2493.000,1.000,505.000,5.000,0
"03/07/08","07:02:50",71461.000,"cc",28283.072,6.00,6,0.100,53580.000,0.200,10368.000,0.300,4139.000,0.500,2668.000,1.000,706.000,5.000,0
"03/07/08","07:02:56",60273.000,"cc",28289.486,6.00,6,0.100,42658.000,0.200,9538.000,0.300,4687.000,0.500,2803.000,1.000,587.000,5.000,0
"03/07/08","07:03:02",63676.000,"cc",28310.270,6.00,6,0.100,42585.000,0.200,11042.000,0.300,5911.000,0.500,3499.000,1.000,639.000,5.000,0
"03/07/08","07:03:08",55900.000,"cc",28294.773,6.00,6,0.100,39031.000,0.200,8983.000,0.300,4486.000,0.500,2820.000,1.000,580.000,5.000,0
"03/07/08","07:03:14",59378.000,"cc",28380.365,6.00,6,0.100,40638.000,0.200,9736.000,0.300,4987.000,0.500,3277.000,1.000,740.000,5.000,0
"03/07/08","07:03:20",54461.000,"cc",28326.670,6.00,6,0.100,39084.000,0.200,8288.000,0.300,3892.000,0.500,2599.000,1.000,598.000,5.000,0
"03/07/08","07:03:26",59004.000,"cc",28313.229,6.00,6,0.100,42652.000,0.200,8897.000,0.300,4199.000,0.500,2633.000,1.000,623.000,5.000,0
"03/07/08","07:03:32",66354.000,"cc",28335.428,6.00,6,0.100,50586.000,0.200,9329.000,0.300,3650.000,0.500,2286.000,1.000,503.000,5.000,0
"03/07/08","07:03:38",68764.000,"cc",28286.121,6.00,6,0.100,53826.000,0.200,9242.000,0.300,3332.000,0.500,1934.000,1.000,430.000,5.000,0
"03/07/08","07:03:44",60272.000,"cc",28292.168,6.00,6,0.100,46177.000,0.200,8359.000,0.300,3304.000,0.500,2043.000,1.000,389.000,5.000,0
"03/07/08","07:03:50",51243.000,"cc",28384.779,6.00,6,0.100,39856.000,0.200,6585.000,0.300,2701.000,0.500,1676.000,1.000,425.000,5.000,0
"03/07/08","07:03:56",52592.000,"cc",28320.898,6.00,6,0.100,39360.000,0.200,7471.000,0.300,3233.000,0.500,2077.000,1.000,451.000,5.000,0
"03/07/08","07:04:02",59492.000,"cc",28349.482,6.00,6,0.100,42835.000,0.200,9262.000,0.300,4294.000,0.500,2547.000,1.000,554.000,5.000,0
"03/07/08","07:04:08",65565.000,"cc",28281.514,6.00,6,0.100,44778.000,0.200,11315.000,0.300,5771.000,0.500,3142.000,1.000,559.000,5.000,0
"03/07/08","07:04:14",61132.000,"cc",28320.670,6.00,6,0.100,45325.000,0.200,9018.000,0.300,3875.000,0.500,2371.000,1.000,543.000,5.000,0
"03/07/08","07:04:20",43862.000,"cc",28328.002,6.00,6,0.100,33785.000,0.200,5722.000,0.300,2356.000,0.500,1598.000,1.000,401.000,5.000,0
"03/07/08","07:04:26",104282.000,"cc",28278.191,6.00,6,0.100,87068.000,0.200,12816.000,0.300,2541.000,0.500,1501.000,1.000,356.000,5.000,0
"03/07/08","07:04:32",256072.000,"cc",28337.104,6.00,6,0.100,214300.000,0.200,36433.000,0.300,3474.000,0.500,1491.000,1.000,374.000,5.000,0
"03/07/08","07:04:38",427950.000,"cc",28364.119,6.00,6,0.100,348515.000,0.200,71791.000,0.300,5712.000,0.500,1637.000,1.000,295.000,5.000,0
"03/07/08","07:04:44",320460.000,"cc",28290.947,6.00,6,0.100,267702.000,0.200,47160.000,0.300,3826.000,0.500,1419.000,1.000,353.000,5.000,0
"03/07/08","07:04:50",238352.000,"cc",28301.590,6.00,6,0.100,201031.000,0.200,31448.000,0.300,3709.000,0.500,1764.000,1.000,400.000,5.000,0
"03/07/08","07:04:56",193409.000,"cc",28296.996,6.00,6,0.100,161082.000,0.200,25377.000,0.300,4398.000,0.500,2158.000,1.000,394.000,5.000,0
"03/07/08","07:05:02",138588.000,"cc",28315.748,6.00,6,0.100,115256.000,0.200,17477.000,0.300,3430.000,0.500,1966.000,1.000,459.000,5.000,0
"03/07/08","07:05:08",182316.000,"cc",28361.674,6.00,6,0.100,153425.000,0.200,24123.000,0.300,2960.000,0.500,1475.000,1.000,333.000,5.000,0
"03/07/08","07:05:14",89313.000,"cc",28299.666,6.00,6,0.100,70454.000,0.200,12052.000,0.300,3926.000,0.500,2387.000,1.000,494.000,5.000,0
"03/07/08","07:05:20",77708.000,"cc",28246.758,6.00,6,0.100,59846.000,0.200,10799.000,0.300,4076.000,0.500,2453.000,1.000,534.000,5.000,0
"03/07/08","07:05:26",72730.000,"cc",28354.662,6.00,6,0.100,57549.000,0.200,9394.000,0.300,3173.000,0.500,2070.000,1.000,544.000,5.000,0
"03/07/08","07:05:32",94469.000,"cc",28315.428,6.00,6,0.100,74909.000,0.200,12612.000,0.300,3850.000,0.500,2464.000,1.000,634.000,5.000,0
"03/07/08","07:05:38",61392.000,"cc",28326.334,6.00,6,0.100,43412.000,0.200,9453.000,0.300,4709.000,0.500,3144.000,1.000,674.000,5.000,0
"03/07/08","07:05:44",57990.000,"cc",28291.180,6.00,6,0.100,39415.000,0.200,9438.000,0.300,5113.000,0.500,3298.000,1.000,726.000,5.000,0
"03/07/08","07:05:50",76554.000,"cc",28316.088,6.00,6,0.100,59025.000,0.200,10447.000,0.300,3856.000,0.500,2559.000,1.000,667.000,5.000,0
"03/07/08","07:05:56",61616.000,"cc",28302.193,6.00,6,0.100,49105.000,0.200,7783.000,0.300,2548.000,0.500,1742.000,1.000,438.000,5.000,0
"03/07/08","07:06:02",53384.000,"cc",28302.703,6.00,6,0.100,42026.000,0.200,6976.000,0.300,2352.000,0.500,1607.000,1.000,423.000,5.000,0
"03/07/08","07:06:08",61454.000,"cc",28343.631,6.00,6,0.100,46548.000,0.200,8528.000,0.300,3569.000,0.500,2282.000,1.000,527.000,5.000,0
"03/07/08","07:06:14",61396.000,"cc",28341.559,6.00,6,0.100,47146.000,0.200,8392.000,0.300,3209.000,0.500,2117.000,1.000,532.000,5.000,0
"03/07/08","07:06:20",65374.000,"cc",28306.029,6.00,6,0.100,51942.000,0.200,8255.000,0.300,2751.000,0.500,1940.000,1.000,486.000,5.000,0
"03/07/08","07:06:26",67557.000,"cc",28299.330,6.00,6,0.100,52144.000,0.200,9094.000,0.300,3494.000,0.500,2252.000,1.000,573.000,5.000,0
"03/07/08","07:06:32",71367.000,"cc",28357.996,6.00,6,0.100,54974.000,0.200,9796.000,0.300,3671.000,0.500,2355.000,1.000,571.000,5.000,0
"03/07/08","07:06:38",78696.000,"cc",28327.340,6.00,6,0.100,60496.000,0.200,10837.000,0.300,4136.000,0.500,2622.000,1.000,605.000,5.000,0
"03/07/08","07:06:44",94467.000,"cc",28248.930,6.00,6,0.100,74774.000,0.200,12516.000,0.300,3959.000,0.500,2561.000,1.000,657.000,5.000,0
"03/07/08","07:06:50",132334.000,"cc",28301.363,6.00,6,0.100,107425.000,0.200,17231.000,0.300,4438.000,0.500,2645.000,1.000,595.000,5.000,0
"03/07/08","07:06:56",107806.000,"cc",28309.502,6.00,6,0.100,84203.000,0.200,14853.000,0.300,5116.000,0.500,2956.000,1.000,678.000,5.000,0
"03/07/08","07:07:02",63802.000,"cc",28320.365,6.00,6,0.100,44132.000,0.200,10249.000,0.300,5243.000,0.500,3446.000,1.000,732.000,5.000,0
"03/07/08","07:07:08",76455.000,"cc",28304.723,6.00,6,0.100,57382.000,0.200,11019.000,0.300,4397.000,0.500,2957.000,1.000,700.000,5.000,0
"03/07/08","07:07:14",72010.000,"cc",28365.629,6.00,6,0.100,52470.000,0.200,10826.000,0.300,4749.000,0.500,3245.000,1.000,720.000,5.000,0
"03/07/08","07:07:20",44503.000,"cc",28346.551,6.00,6,0.100,30304.000,0.200,7209.000,0.300,4052.000,0.500,2423.000,1.000,515.000,5.000,0
"03/07/08","07:07:26",39628.000,"cc",28341.361,6.00,6,0.100,28953.000,0.200,5609.000,0.300,2771.000,0.500,1881.000,1.000,414.000,5.000,0
"03/07/08","07:07:32",70126.000,"cc",28223.834,6.00,6,0.100,54217.000,0.200,9409.000,0.300,3462.000,0.500,2419.000,1.000,619.000,5.000,0
"03/07/08","07:07:38",48240.000,"cc",28378.598,6.00,6,0.100,36675.000,0.200,6406.000,0.300,2783.000,0.500,1885.000,1.000,491.000,5.000,0
"03/07/08","07:07:44",113658.000,"cc",28333.201,6.00,6,0.100,94109.000,0.200,14433.000,0.300,2818.000,0.500,1810.000,1.000,488.000,5.000,0
"03/07/08","07:07:50",133200.000,"cc",28231.988,6.00,6,0.100,113355.000,0.200,15288.000,0.300,2526.000,0.500,1585.000,1.000,446.000,5.000,0
"03/07/08","07:07:56",64417.000,"cc",28359.395,6.00,6,0.100,52736.000,0.200,7679.000,0.300,2214.000,0.500,1460.000,1.000,328.000,5.000,0
"03/07/08","07:08:02",40627.000,"cc",28361.168,6.00,6,0.100,32274.000,0.200,4827.000,0.300,1883.000,0.500,1305.000,1.000,338.000,5.000,0
"03/07/08","07:08:08",49395.000,"cc",28352.285,6.00,6,0.100,39681.000,0.200,5912.000,0.300,2012.000,0.500,1429.000,1.000,361.000,5.000,0
"03/07/08","07:08:14",46279.000,"cc",28306.338,6.00,6,0.100,36082.000,0.200,5954.000,0.300,2273.000,0.500,1584.000,1.000,386.000,5.000,0
"03/07/08","07:08:20",41714.000,"cc",28312.061,6.00,6,0.100,29446.000,0.200,6164.000,0.300,3310.000,0.500,2264.000,1.000,530.000,5.000,0
"03/07/08","07:08:26",55532.000,"cc",28336.522,6.00,6,0.100,42867.000,0.200,7215.000,0.300,2914.000,0.500,1993.000,1.000,543.000,5.000,0
"03/07/08","07:08:32",116100.000,"cc",28286.465,6.00,6,0.100,98976.000,0.200,13640.000,0.300,1957.000,0.500,1206.000,1.000,321.000,5.000,0
"03/07/08","07:08:38",248551.000,"cc",28321.039,6.00,6,0.100,210589.000,0.200,32394.000,0.300,3471.000,0.500,1684.000,1.000,413.000,5.000,0
"03/07/08","07:08:44",197820.000,"cc",28332.957,6.00,6,0.100,166698.000,0.200,25060.000,0.300,3606.000,0.500,1962.000,1.000,494.000,5.000,0
"03/07/08","07:08:50",153923.000,"cc",28297.611,6.00,6,0.100,124730.000,0.200,20153.000,0.300,5053.000,0.500,3211.000,1.000,776.000,5.000,0
"03/07/08","07:08:56",61451.000,"cc",28279.490,6.00,6,0.100,46316.000,0.200,8401.000,0.300,3604.000,0.500,2498.000,1.000,632.000,5.000,0
"03/07/08","07:09:02",84215.000,"cc",28336.543,6.00,6,0.100,67810.000,0.200,10775.000,0.300,3114.000,0.500,2035.000,1.000,481.000,5.000,0
"03/07/08","07:09:08",79489.000,"cc",28308.746,6.00,6,0.100,63599.000,0.200,9981.000,0.300,3209.000,0.500,2159.000,1.000,541.000,5.000,0
"03/07/08","07:09:14",84597.000,"cc",28325.662,6.00,6,0.100,69331.000,0.200,10243.000,0.300,2689.000,0.500,1797.000,1.000,537.000,5.000,0
"03/07/08","07:09:20",47882.000,"cc",28309.584,6.00,6,0.100,36430.000,0.200,6429.000,0.300,2743.000,0.500,1852.000,1.000,428.000,5.000,0
"03/07/08","07:09:26",54499.000,"cc",28275.898,6.00,6,0.100,42156.000,0.200,7231.000,0.300,2707.000,0.500,1883.000,1.000,522.000,5.000,0
"03/07/08","07:09:32",57060.000,"cc",28328.887,6.00,6,0.100,45637.000,0.200,7072.000,0.300,2298.000,0.500,1600.000,1.000,453.000,5.000,0
"03/07/08","07:09:38",47383.000,"cc",28338.434,6.00,6,0.100,33266.000,0.200,6937.000,0.300,3929.000,0.500,2620.000,1.000,631.000,5.000,0
"03/07/08","07:09:44",47110.000,"cc",28316.356,6.00,6,0.100,33497.000,0.200,6976.000,0.300,3568.000,0.500,2455.000,1.000,614.000,5.000,0
"03/07/08","07:09:50",41896.000,"cc",28322.332,6.00,6,0.100,29443.000,0.200,6279.000,0.300,3288.000,0.500,2340.000,1.000,546.000,5.000,0
"03/07/08","07:09:56",40207.000,"cc",28341.410,6.00,6,0.100,26755.000,0.200,6378.000,0.300,3802.000,0.500,2624.000,1.000,648.000,5.000,0
"03/07/08","07:10:02",47363.000,"cc",28326.436,6.00,6,0.100,32536.000,0.200,7356.000,0.300,3920.000,0.500,2800.000,1.000,751.000,5.000,0
"03/07/08","07:10:08",111364.000,"cc",28339.938,6.00,6,0.100,87938.000,0.200,15446.000,0.300,4561.000,0.500,2785.000,1.000,634.000,5.000,0
"03/07/08","07:10:14",137818.000,"cc",28254.750,6.00,6,0.100,110037.000,0.200,18798.000,0.300,5005.000,0.500,3205.000,1.000,773.000,5.000,0
"03/07/08","07:10:20",109822.000,"cc",28305.756,6.00,6,0.100,82150.000,0.200,16220.000,0.300,6304.000,0.500,4116.000,1.000,1032.000,5.000,0
"03/07/08","07:10:26",195395.000,"cc",28275.703,6.00,6,0.100,159362.000,0.200,26788.000,0.300,5328.000,0.500,3121.000,1.000,796.000,5.000,0
"03/07/08","07:10:32",201977.000,"cc",28286.713,6.00,6,0.100,168798.000,0.200,26425.000,0.300,3966.000,0.500,2207.000,1.000,581.000,5.000,0
"03/07/08","07:10:38",109514.000,"cc",28342.061,6.00,6,0.100,86535.000,0.200,14745.000,0.300,4570.000,0.500,2992.000,1.000,672.000,5.000,0
"03/07/08","07:10:44",62714.000,"cc",28324.311,6.00,6,0.100,43146.000,0.200,10317.000,0.300,5318.000,0.500,3312.000,1.000,621.000,5.000,0
"03/07/08","07:10:50",72449.000,"cc",28317.078,6.00,6,0.100,54375.000,0.200,10302.000,0.300,4191.000,0.500,2872.000,1.000,709.000,5.000,0
"03/07/08","07:10:56",53109.000,"cc",28340.563,6.00,6,0.100,37846.000,0.200,7832.000,0.300,3853.000,0.500,2819.000,1.000,759.000,5.000,0
"03/07/08","07:11:02",69857.000,"cc",28347.418,6.00,6,0.100,50729.000,0.200,10278.000,0.300,4587.000,0.500,3308.000,1.000,955.000,5.000,0
"03/07/08","07:11:08",74055.000,"cc",28282.607,6.00,6,0.100,56747.000,0.200,10067.000,0.300,3797.000,0.500,2652.000,1.000,792.000,5.000,0
"03/07/08","07:11:14",51614.000,"cc",28325.074,6.00,6,0.100,38148.000,0.200,7301.000,0.300,3481.000,0.500,2148.000,1.000,536.000,5.000,0
"03/07/08","07:11:20",62101.000,"cc",28352.162,6.00,6,0.100,48397.000,0.200,8149.000,0.300,2896.000,0.500,2090.000,1.000,569.000,5.000,0
"03/07/08","07:11:26",55664.000,"cc",28279.633,6.00,6,0.100,36635.000,0.200,9272.000,0.300,5482.000,0.500,3489.000,1.000,786.000,5.000,0
"03/07/08","07:11:32",54017.000,"cc",28378.492,6.00,6,0.100,32513.000,0.200,10251.000,0.300,6524.000,0.500,3911.000,1.000,818.000,5.000,0
"03/07/08","07:11:38",77603.000,"cc",28317.295,6.00,6,0.100,57107.000,0.200,11175.000,0.300,4849.000,0.500,3457.000,1.000,1015.000,5.000,0
"03/07/08","07:11:44",62965.000,"cc",28312.084,6.00,6,0.100,46440.000,0.200,8939.000,0.300,3879.000,0.500,2878.000,1.000,829.000,5.000,0
"03/07/08","07:11:50",59802.000,"cc",28258.682,6.00,6,0.100,46466.000,0.200,7792.000,0.300,2944.000,0.500,2084.000,1.000,516.000,5.000,0
"03/07/08","07:11:56",71391.000,"cc",28274.102,6.00,6,0.100,56514.000,0.200,9306.000,0.300,3016.000,0.500,2056.000,1.000,499.000,5.000,0
"03/07/08","07:12:02",75907.000,"cc",28305.830,6.00,6,0.100,57682.000,0.200,10613.000,0.300,4207.000,0.500,2746.000,1.000,659.000,5.000,0
"03/07/08","07:12:08",104025.000,"cc",28353.379,6.00,6,0.100,83474.000,0.200,13681.000,0.300,3891.000,0.500,2453.000,1.000,526.000,5.000,0
"03/07/08","07:12:14",79837.000,"cc",28357.916,6.00,6,0.100,63057.000,0.200,10316.000,0.300,3574.000,0.500,2355.000,1.000,535.000,5.000,0
"03/07/08","07:12:20",72299.000,"cc",28261.065,6.00,6,0.100,53599.000,0.200,10488.000,0.300,4517.000,0.500,3035.000,1.000,660.000,5.000,0
"03/07/08","07:12:26",72188.000,"cc",28329.393,6.00,6,0.100,50379.000,0.200,11363.000,0.300,5670.000,0.500,3863.000,1.000,913.000,5.000,0
"03/07/08","07:12:32",88541.000,"cc",28310.680,6.00,6,0.100,68861.000,0.200,12038.000,0.300,4119.000,0.500,2792.000,1.000,731.000,5.000,0
"03/07/08","07:12:38",201782.000,"cc",28364.072,6.00,6,0.100,166498.000,0.200,27559.000,0.300,4507.000,0.500,2504.000,1.000,714.000,5.000,0
"03/07/08","07:12:44",206613.000,"cc",28291.971,6.00,6,0.100,172183.000,0.200,27203.000,0.300,4212.000,0.500,2396.000,1.000,619.000,5.000,0
"03/07/08","07:12:50",102345.000,"cc",28303.514,6.00,6,0.100,80542.000,0.200,13899.000,0.300,4301.000,0.500,2892.000,1.000,711.000,5.000,0
"03/07/08","07:12:56",88130.000,"cc",28277.656,6.00,6,0.100,69691.000,0.200,11482.000,0.300,3757.000,0.500,2509.000,1.000,691.000,5.000,0
"03/07/08","07:13:02",90547.000,"cc",28336.981,6.00,6,0.100,72268.000,0.200,11530.000,0.300,3578.000,0.500,2499.000,1.000,672.000,5.000,0
"03/07/08","07:13:08",147076.000,"cc",28312.920,6.00,6,0.100,122133.000,0.200,18559.000,0.300,3528.000,0.500,2217.000,1.000,639.000,5.000,0
"03/07/08","07:13:14",283058.000,"cc",28350.391,6.00,6,0.100,238387.000,0.200,38666.000,0.300,3825.000,0.500,1715.000,1.000,465.000,5.000,0
"03/07/08","07:13:20",158906.000,"cc",28286.566,6.00,6,0.100,133505.000,0.200,20102.000,0.300,3097.000,0.500,1766.000,1.000,436.000,5.000,0
"03/07/08","07:13:26",136692.000,"cc",28314.686,6.00,6,0.100,114348.000,0.200,17421.000,0.300,2851.000,0.500,1678.000,1.000,394.000,5.000,0
"03/07/08","07:13:32",121593.000,"cc",28291.826,6.00,6,0.100,101260.000,0.200,15160.000,0.300,2997.000,0.500,1778.000,1.000,398.000,5.000,0
"03/07/08","07:13:38",58122.000,"cc",28354.320,6.00,6,0.100,42802.000,0.200,8444.000,0.300,3757.000,0.500,2563.000,1.000,556.000,5.000,0
"03/07/08","07:13:44",69023.000,"cc",28371.043,6.00,6,0.100,51409.000,0.200,9756.000,0.300,4141.000,0.500,2935.000,1.000,782.000,5.000,0
"03/07/08","07:13:50",72655.000,"cc",28346.410,6.00,6,0.100,50470.000,0.200,11742.000,0.300,5692.000,0.500,3810.000,1.000,941.000,5.000,0
"03/07/08","07:13:56",68511.000,"cc",28302.049,6.00,6,0.100,53019.000,0.200,9423.000,0.300,3327.000,0.500,2175.000,1.000,567.000,5.000,0
"03/07/08","07:14:02",96732.000,"cc",28293.523,6.00,6,0.100,78054.000,0.200,12457.000,0.300,3394.000,0.500,2234.000,1.000,593.000,5.000,0
"03/07/08","07:14:08",96408.000,"cc",28334.275,6.00,6,0.100,78212.000,0.200,12235.000,0.300,3108.000,0.500,2218.000,1.000,635.000,5.000,0
"03/07/08","07:14:14",87812.000,"cc",28331.309,6.00,6,0.100,70515.000,0.200,11267.000,0.300,3169.000,0.500,2241.000,1.000,620.000,5.000,0
"03/07/08","07:14:20",61240.000,"cc",28259.805,6.00,6,0.100,48813.000,0.200,7909.000,0.300,2512.000,0.500,1567.000,1.000,439.000,5.000,0
"03/07/08","07:14:26",96828.000,"cc",28353.875,6.00,6,0.100,80044.000,0.200,11774.000,0.300,2805.000,0.500,1748.000,1.000,457.000,5.000,0
"03/07/08","07:14:32",65977.000,"cc",28337.861,6.00,6,0.100,49890.000,0.200,9193.000,0.300,3934.000,0.500,2414.000,1.000,546.000,5.000,0
"03/07/08","07:14:38",83828.000,"cc",28283.395,6.00,6,0.100,66444.000,0.200,11032.000,0.300,3521.000,0.500,2235.000,1.000,596.000,5.000,0
"03/07/08","07:14:44",89230.000,"cc",28291.988,6.00,6,0.100,71909.000,0.200,11385.000,0.300,3282.000,0.500,2081.000,1.000,573.000,5.000,0
"03/07/08","07:14:50",69718.000,"cc",28255.768,6.00,6,0.100,51772.000,0.200,9955.000,0.300,4250.000,0.500,2970.000,1.000,771.000,5.000,0
"03/07/08","07:14:56",110771.000,"cc",28335.348,6.00,6,0.100,89806.000,0.200,14182.000,0.300,3754.000,0.500,2390.000,1.000,639.000,5.000,0
"03/07/08","07:15:02",74538.000,"cc",28364.334,6.00,6,0.100,53205.000,0.200,11319.000,0.300,5320.000,0.500,3717.000,1.000,977.000,5.000,0
"03/07/08","07:15:08",84779.000,"cc",28226.215,6.00,6,0.100,64784.000,0.200,11741.000,0.300,4455.000,0.500,3031.000,1.000,768.000,5.000,0
"03/07/08","07:15:14",95970.000,"cc",28397.563,6.00,6,0.100,74946.000,0.200,13066.000,0.300,4348.000,0.500,2830.000,1.000,780.000,5.000,0
"03/07/08","07:15:20",95078.000,"cc",28307.705,6.00,6,0.100,76642.000,0.200,12034.000,0.300,3485.000,0.500,2286.000,1.000,631.000,5.000,0
"03/07/08","07:15:26",76823.000,"cc",28245.320,6.00,6,0.100,60633.000,0.200,10058.000,0.300,3356.000,0.500,2260.000,1.000,516.000,5.000,0
"03/07/08","07:15:32",127191.000,"cc",28311.578,6.00,6,0.100,101706.000,0.200,16910.000,0.300,4778.000,0.500,3019.000,1.000,778.000,5.000,0
"03/07/08","07:15:38",144176.000,"cc",28290.992,6.00,6,0.100,118212.000,0.200,18467.000,0.300,4283.000,0.500,2574.000,1.000,640.000,5.000,0
"03/07/08","07:15:44",186391.000,"cc",28325.340,6.00,6,0.100,154842.000,0.200,24051.000,0.300,4338.000,0.500,2482.000,1.000,678.000,5.000,0
"03/07/08","07:15:50",167247.000,"cc",28349.168,6.00,6,0.100,138381.000,0.200,21423.000,0.300,4303.000,0.500,2462.000,1.000,678.000,5.000,0
"03/07/08","07:15:56",104025.000,"cc",28300.264,6.00,6,0.100,82282.000,0.200,13898.000,0.300,4429.000,0.500,2741.000,1.000,675.000,5.000,0
"03/07/08","07:16:02",103000.000,"cc",28294.385,6.00,6,0.100,83702.000,0.200,13105.000,0.300,3583.000,0.500,2034.000,1.000,576.000,5.000,0
"03/07/08","07:16:08",85502.000,"cc",28302.410,6.00,6,0.100,63541.000,0.200,12451.000,0.300,5209.000,0.500,3438.000,1.000,863.000,5.000,0
"03/07/08","07:16:14",107419.000,"cc",28328.297,6.00,6,0.100,84975.000,0.200,14362.000,0.300,4511.000,0.500,2807.000,1.000,764.000,5.000,0